Location: El Banque
(10.1667°N, 66.6500°W)
Time: 05:38:06
(UTC+00:00)

Daily predictions for brighter satellites

Satellite Brightness Start Highest point End
(mag) Time Altitude Azimuth Time Altitude Azimuth Time Altitude Azimuth
CZ-4 R/B 3.3 00:06:45 22° NNW 00:06:45 22° NNW 00:08:19 10° NNW
NOSS 3-3 (A) 4.4 00:03:20 10° SW 00:08:21 48° WNW 00:11:15 24° N
NOSS 3-3 (C) 4.3 00:03:25 10° SW 00:08:28 48° WNW 00:11:11 26° N
USA 229 DEB 3.9 00:01:28 10° NNW 00:09:18 70° ENE 00:10:39 60° ESE
USA 229 3.9 00:01:34 10° NNW 00:09:24 69° ENE 00:10:39 61° ESE
Lacrosse 4 Rocket 4.2 00:17:21 10° WSW 00:19:46 15° WNW 00:22:10 10° NNW
ATLAS 5 CENTAUR R/B 3.8 01:04:43 10° W 01:23:01 44° NW 01:23:01 44° NW
SPELTRA 4.4 07:50:42 57° SSE 07:50:42 57° SSE 07:54:46 10° E
USA 234 3.9 07:53:03 10° NNE 07:57:21 44° NNE 07:57:21 44° NNE
Intelsat 5-1 Rocket 4.2 08:05:16 42° SW 08:09:40 63° SSE 08:15:41 10° E
ARIANE 3 DEB 4.4 08:11:52 57° S 08:11:52 57° S 08:22:26 10° ESE
Envisat 3.8 08:08:01 10° NNE 08:12:54 48° ESE 08:15:19 27° SSE
Ariane H10+ 3.7 08:17:58 41° SW 08:19:00 42° SSW 08:24:21 10° SE
Yuri Rocket 4.1 08:19:45 54° S 08:20:09 55° SSE 08:25:07 10° ENE
CZ-2C R/B 4.2 08:19:49 10° SE 08:24:23 32° ENE 08:28:59 10° NNE
OAO 3 Rocket 3.6 08:27:53 56° SE 08:27:53 56° SE 08:32:25 10° ENE
Cosmos 1447 Rocket 4.3 08:27:11 10° NNW 08:33:19 65° W 08:39:25 10° S
Milstar 3 Cent rocket 3.9 08:30:40 18° SSW 08:36:07 34° SSE 08:41:07 10° E
Cosmos 1459 Rocket 4.1 08:39:37 50° WNW 08:39:37 50° WNW 08:45:10 10° N
Cosmos 1697 Rocket 2.8 08:36:28 10° N 08:42:06 74° ENE 08:47:44 10° SSE
Cosmos 1864 Rocket 4.3 08:36:12 10° S 08:42:22 86° W 08:48:35 10° N
Cosmos 1954 Rocket 4.2 08:44:28 10° N 08:49:43 72° ENE 08:55:00 10° SSE
Cosmos 1190 Rocket 3.9 08:48:03 28° NNW 08:50:43 64° WSW 08:55:55 10° S
Meteor 1-11 Rocket 3.7 08:45:33 10° NNW 08:51:24 66° W 08:57:09 10° S
Cosmos 2233 Rocket 4.4 08:46:50 10° S 08:53:04 67° E 08:59:19 10° NNE
Chandra Rocket (1) 3.1 08:53:02 18° NNE 08:53:08 18° NNE 08:55:04 10° ENE
H-2A R/B 2.5 08:49:43 10° N 08:53:23 86° WNW 08:56:02 18° SSW
FUSE 3.9 08:53:41 45° W 08:55:20 76° NNW 09:00:43 10° ENE
Meteor 1-19 Rocket 4.4 08:55:04 40° W 08:55:28 41° W 09:00:34 10° NNW
GP-B 3.1 08:51:16 10° S 08:55:42 81° E 09:00:06 10° N
Centaur D-1AR AC-38 3.9 08:54:23 31° NW 08:55:46 45° NNE 08:59:45 10° E
Cosmos 1802 Rocket 4.2 08:50:25 10° SSW 08:56:31 47° W 09:02:36 10° NNW
CZ-2C R/B 2.9 08:52:46 10° NNE 08:56:37 76° E 09:00:33 10° S
USA 238 DEB 4.3 08:57:01 29° WNW 08:57:01 29° WNW 09:02:05 10° N
USA 238 4.3 08:57:03 29° WNW 08:57:03 29° WNW 09:02:14 10° N
Cosmos 1536 3.6 09:01:14 33° SW 09:01:14 33° SW 09:03:48 10° SSW
Cosmos 1933 Rocket 4.1 08:56:27 10° N 09:00:45 58° E 09:05:02 10° SSE
Cosmos 1725 Rocket 4.0 08:56:02 10° SSW 09:02:10 58° W 09:08:21 10° N
Cosmos 1818 4.2 08:57:24 10° S 09:02:41 57° ESE 09:07:59 10° NNE
Cosmos 2346 Rocket 4.3 08:57:59 10° N 09:04:03 72° W 09:10:12 10° S
H-2A ROCKET BODY 4.4 08:59:13 12° NW 09:05:15 42° NE 09:34:23 10° ESE
PSLV R/B 3.3 09:01:09 10° N 09:05:23 73° WNW 09:09:35 10° SSW
Spelda 4.4 09:05:03 19° S 09:05:23 19° S 09:07:28 10° ESE
CZ-2C R/B 3.2 09:02:03 10° N 09:07:21 52° WNW 09:12:23 10° SSW
CZ-4B R/B 3.9 09:03:41 10° NNE 09:08:55 70° ESE 09:14:07 10° S
Cosmos 1302 Rocket 3.9 09:05:30 10° SSW 09:10:41 64° WNW 09:15:54 10° N
SL-08 R/B 3.4 09:07:00 10° SSE 09:11:35 76° ENE 09:16:12 10° N
Lacrosse 5 rocket 1.5 09:10:50 20° SW 09:13:52 62° WNW 09:18:22 10° NNE
GPS 2-12 Rocket1 3.9 09:12:26 18° SW 09:15:41 47° SSE 09:20:17 10° E
ATLAS 2A CENTAUR R/B 3.8 09:11:18 10° SSW 09:15:52 33° SE 09:22:39 10° E
Cosmos 2228 Rocket 3.1 09:11:47 10° SSW 09:16:16 62° W 09:20:41 10° N
COSMOS 2487 4.2 09:14:21 10° SSE 09:16:51 27° E 09:19:21 10° NE
GPS 2-15 Rocket1 3.8 09:14:42 25° WNW 09:17:08 44° NNW 09:21:47 10° ENE
Aurora 2 Rocket 3.9 09:17:08 22° W 09:21:21 61° NNW 09:29:55 10° ENE
ARIANE 5 DEB (SYLDA) 2.9 09:19:32 22° WSW 09:21:52 47° S 09:24:09 10° ESE
Cosmos 1980 Rocket 2.3 09:17:24 10° NNW 09:22:58 80° ENE 09:28:35 10° SSE
FALCON 9 DEB 4.1 09:25:28 23° WNW 09:25:57 24° NW 09:28:33 10° N
Meteor 2-9 Rocket 4.1 09:23:29 10° N 09:29:00 75° W 09:34:24 10° S
Landsat 4 4.1 09:28:28 10° NNE 09:32:06 64° ESE 09:35:45 10° S
Cosmos 2369 3.6 09:29:18 10° NNW 09:34:53 69° WSW 09:40:28 10° S
SWIFT 3.1 09:32:05 16° W 09:34:55 37° SSW 09:38:45 10° SE
SYLDA PLATFORM 4.5 09:36:43 13° WSW 09:39:39 47° S 09:46:22 10° ESE
Cosmos 1833 4.2 09:36:04 10° SSW 09:41:37 60° WNW 09:47:13 10° N
H-2A R/B 3.7 09:37:32 10° NNE 09:42:34 40° E 09:47:30 10° S
CZ-3 R/B 4.0 09:25:08 13° WNW 09:43:50 33° NNW 09:51:13 10° NE
Tiangong -1.5 09:41:03 10° NW 09:44:09 55° NE 09:47:15 10° ESE
COSMO-SKYMED 1 3.8 09:43:35 10° SSE 09:47:45 47° ENE 09:51:54 10° N
Meteor 1-31 Rocket 2.7 09:46:31 10° N 09:50:22 88° W 09:54:14 10° SSW
Cosmos 1939 Rocket 2.7 09:48:03 10° N 09:51:58 73° W 09:55:50 10° SSW
Cosmos 1707 Rocket 4.0 09:47:59 10° SSW 09:52:03 38° W 09:56:06 10° NNW
ATLAS 5 CENTAUR R/B 4.0 09:45:53 10° WSW 09:52:59 34° S 10:19:29 10° SE
Ariane 44P Rocket 3.6 09:52:16 10° SSW 09:53:21 13° S 09:54:37 10° SE
